Regional Weather Roundup
Issued by NWS Green Bay, WI

Home | Current Version | Previous Version | Graphics & Text | Print | Product List | Glossary Off
Versions: 1 2 3 4 5 6 7 8 9 10 11 12 13 14 15 16 17 18 19 20 21 22 23 24 25 26 27 28 29 30 31 32 33 34 35 36 37 38 39 40 41 42 43 44 45 46 47 48 49 50

000
ASUS43 KGRB 271100
RWRGRB

NORTH-CENTRAL AND NORTHEAST WISCONSIN REGIONAL WEATHER ROUNDUP
NATIONAL WEATHER SERVICE GREEN BAY WI
500 AM CST MON FEB 27 2017

WIZ005-009-010>012-018-019-271200-
NORTH CENTRAL WISCONSIN

CITY           SKY/WX    TMP DP  RH WIND       PRES   REMARKS
IRONWOOD       CLOUDY    13   5  70 SE5       29.98S WCI   5
MANITOWISH WTR NOT AVBL
ARBOR VITAE    NOT AVBL
EAGLE RIVER    NOT AVBL
LAND O LAKES   NOT AVBL
RHINELANDER    CLOUDY   N/A N/A N/A CALM      29.99R
PHILLIPS       NOT AVBL
ANTIGO         NOT AVBL
TOMAHAWK       NOT AVBL
MERRILL        NOT AVBL
$$

WIZ013-073-271200-
NORTHEAST WISCONSIN

CITY           SKY/WX    TMP DP  RH WIND       PRES   REMARKS
IRON MOUNTAIN  CLEAR      2  -2  83 CALM      30.01S
MARINETTE      MOCLDY    16  11  80 CALM      30.10R
$$

WIZ017-030-035>037-045-271200-
CENTRAL WISCONSIN

CITY           SKY/WX    TMP DP  RH WIND       PRES   REMARKS
MEDFORD        NOT AVBL
WAUSAU         CLOUDY    22  18  85 SE3       30.01R
MOSINEE        NOT AVBL
MARSHFIELD     CLOUDY    23  19  85 S9        29.99S
WISC RAPIDS    CLOUDY    22  21  96 S3        30.04R
STEVENS POINT  NOT AVBL
WAUPACA        NOT AVBL
SHAWANO        CLOUDY    25  15  66 CALM      30.08R
CLINTONVILLE   NOT AVBL
WAUTOMA        CLEAR     16  13  88 CALM      30.07R
$$

WIZ038-039-048-051-271200-
FOX VALLEY

CITY           SKY/WX    TMP DP  RH WIND       PRES   REMARKS
NWS GREEN BAY  CLEAR     22  16  78 E5        30.07S
APPLETON       NOT AVBL
OSHKOSH        CLEAR     22  18  85 S6        30.07R
FOND DU LAC    CLEAR     22  17  81 S5        30.08S
$$

WIZ022-050-052-271200-
EAST CENTRAL WISCONSIN

CITY           SKY/WX    TMP DP  RH WIND       PRES   REMARKS
EPHRAIM        NOT AVBL
WASHINGTON ISL NOT AVBL
STURGEON BAY   CLEAR     19  14  81 E3        30.10R
MANITOWOC      NOT AVBL
SHEBOYGAN      CLEAR     24  19  81 W3        30.09R
$$

LMZ563-521-522-541>543-271200-
LAKESHORE

STATION/POSITION TIME  TEMP    WIND        PRES    VSBY  WAVE
                       AIR SEA DIR/SP/G                  HT/PER
                 (UTC) (F)     (DEG/KT/KT) (MB)    (MI)  (FT/S)
SHEBOYGAN LKSHOR 1000   30     250/  5/  6 1019.4R
KEWAUNEE LKSHORE 1030   23      CALM  /  3 1018.4R
NORTHPORT PIER   1040   20      CALM  /  1 1019.0R
SISTER BAY LKSHO 1035   18        CALM       N/A
CHAMBERS ISLAND  1030   18        CALM     1018.3S
MENOMINEE LKSHOR 1030   24     240/  2/  2 1018.1R
$$




USA.gov is the U.S. government's official web portal to all federal, state and local government web resources and services.